Tracking 19146 objects as of 24-Apr-2018
HD Live streaming from Space Station
objects crossing your sky now

COSMOS 1799

Track COSMOS 1799 now!
10-day predictions
COSMOS 1799 is classified as:


NORAD ID: 17143
Int'l Code: 1986-092F
Perigee: 1,420.5 km
Apogee: 1,479.2 km
Inclination: 74.0 °
Period: 114.7 minutes
Semi major axis: 7820 km
RCS: 0.7053 m2 (medium)
Launch date: November 21, 1986
Source: Commonwealth of Independent States (former USSR) (CIS)
Launch site: PLESETSK MISSILE AND SPACE COMPLEX (PKMTR)
aabbcc
Your satellite tracking list
Your tracking list is empty




NASA's NSSDC Master Catalog

Two Line Element Set (TLE):
1 17143U 86092F   18114.20484384 -.00000023  00000-0 -40771-4 0  9999
2 17143  74.0128 164.3247 0037495 351.3800  64.0257 12.55229258440064
Source of the keplerian elements: AFSPC